Regional Weather Roundup
Issued by NWS

Home | Current Version | Previous Version | Graphics & Text | Print | Product List | Glossary On
Versions: 1 2 3 4 5 6 7 8 9 10 11 12 13 14 15 16 17 18 19 20 21 22 23 24 25 26 27 28 29 30 31 32 33 34 35 36 37 38 39 40 41 42 43 44 45 46 47 48 49 50
000
ASUS43 KLMK 301810
RWRKY
KENTUCKY REGIONAL WEATHER ROUNDUP
NATIONAL WEATHER SERVICE LOUISVILLE KY
200 PM EDT TUE JUN 30 2015

NOTE "FAIR" INDICATES FEW OR NO CLOUDS BELOW 12,000 FEET
WITH NO SIGNIFICANT WEATHER AND/OR OBSTRUCTIONS TO VISIBILITY.

KYZ001>023-026-027-061>063-070>075-301900-
WESTERN AND SOUTH CENTRAL KENTUCKY

CITY           SKY/WX    TMP DP  RH WIND       PRES   REMARKS
PADUCAH        SUNNY     85  69  58 W7        29.90F
HENDERSON      SUNNY     82  70  65 W8        29.87F
OWENSBORO      MOSUNNY   84  71  65 W12       29.88F
HOPKINSVILLE   PTSUNNY   81  68  65 W12       29.91F
BOWLING GREEN  MOSUNNY   85  67  54 W12       29.90F
GLASGOW        PTSUNNY   81  68  63 W7        29.90F
$$

KYZ024-025-028>034-038-045-046-053-301900-
NORTH CENTRAL KENTUCKY

CITY           SKY/WX    TMP DP  RH WIND       PRES   REMARKS
LOUISVILLE/SDF PTSUNNY   84  65  52 SW15      29.85F
LOUISVILLE/LOU MOSUNNY   82  65  56 W10       29.86F
FORT KNOX      MOSUNNY   83  67  58 W12       29.87F
$$

KYZ035>037-039>044-047>052-055>060-089>105-301900-
NORTHEAST KENTUCKY

CITY           SKY/WX    TMP DP  RH WIND       PRES   REMARKS
LEXINGTON      MOSUNNY   80  67  64 SW14      29.90F
COVINGTON      TSTM      66  63  88 W24G32    29.88R FOG
FRANKFORT      MOSUNNY   80  66  62 SW12      29.87F
$$

KYZ054-064>069-076>088-106>120-301900-
SOUTHEAST KENTUCKY

CITY           SKY/WX    TMP DP  RH WIND       PRES   REMARKS
JACKSON        MOSUNNY   79  67  66 CALM      29.94F
LONDON         MOSUNNY   81  63  54 SW7       29.94F
SOMERSET       SUNNY     75  66  73 W5        29.93F
MIDDLESBORO    PTSUNNY   80  69  69 S7        29.94F
MONTICELLO     MOCLDY    79  70  74 W6        29.94F
$$




USA.gov is the U.S. government's official web portal to all federal, state and local government web resources and services.